www.pogodaiklimat.ru

Погода и климат >> Архив погоды >> Польша >> Wroclaw


АРХИВ ПОГОДЫ в Wroclaw

Время (UTC), дата Ветер
(напр.,м/с)
 
Видим.   Явления Облачность Т
(С)
Тd
(С)
f
(%)
Тe
(С)
Тes
(С)
Комфортность P
(гПа)
Po
(гПа)
Тmin
(С)
Tmax
(С)
R
(мм)
R24
(мм)
S
(см)
07 19.04 З 1 15 км ясно +15.3 +10.9 75 +16 +22 тепло 1031.7 1017.0
08 19.04 З 2 20 км ясно +18.0 +11.3 65 +19 +27 тепло 1031.4 1016.8
09 19.04 СЗ 2 30 км ясно +19.6 +11.1 58 +21 +33 комфорт 1031.4 1016.9
11 19.04 СЗ 3
{8}
40 км 1/1 1000 м
[Cu hum Ci fib]
+21.4 +11.4 53 +23 +33 комфорт 1030.9 1016.5
10 19.04 СЗ 2 40 км 1/0
[Ci fib]
+20.7 +11.3 55 +23 +36 комфорт 1031.2 1016.8
12 19.04 СЗ 2
{8}
40 км 1/1 1000 м
[Cu hum Ci fib]
+22.4 +11.5 50 +25 +36 комфорт 1030.2 1015.9
13 19.04 С 2 40 км 1/1 1000 м
[Cu hum Ci fib]
+23.6 +12.3 49 +25 +35 комфорт 1029.7 1015.4
14 19.04 СЗ 2 40 км 3/1 1500 м
[Cu hum Ci fib]
+23.9 +10.2 42 +25 +32 комфорт 1029.1 1014.9
15 19.04 С 3 40 км 3/1 1500 м
[Cu hum Ci fib]
+24.1 +10.4 42 +25 +29 комфорт 1028.6 1014.4
17 19.04 С 2 50 км 3/0
[Ac trans Ci fib]
+22.8 +10.9 47 +25 +25 комфорт 1028.2 1013.9
16 19.04 С 3 50 км 3/1 1500 м
[Sc diur, vesp Ci fib]
+23.5 +9.8 42 +25 +26 комфорт 1028.5 1014.2
18 19.04 С 2 50 км 5/0
[Ci fib]
+21.1 +10.9 52 +23 +23 комфорт 1028.5 1014.1 +12.1 +24.3
19 19.04 СЗ 1 50 км 4/0
[Ci fib]
+18.1 +10.7 62 +19 +19 тепло 1028.9 1014.4
20 19.04 З 1 50 км 1/0
[Ci fib]
+16.1 +10.6 70 +17 +17 тепло 1029.0 1014.4
21 19.04 СЗ 1 50 км ясно +14.7 +10.7 77 +15 +15 тепло 1028.9 1014.2
23 19.04 СЗ 1 40 км ясно +12.3 +10.2 87 +12 +12 тепло 1028.9 1014.1
22 19.04 С 1 40 км ясно +12.1 +8.4 78 +12 +12 тепло 1029.0 1014.2
00 20.04 штиль 0 40 км местами туман поземный ясно +10.4 +7.8 84 +10 +10 тепло 1029.1 1014.2
01 20.04 ЮВ 1 30 км местами туман поземный ясно +10.7 +9.5 92 +10 +10 тепло 1028.9 1014.0
02 20.04 Ю 1 30 км местами туман поземный ясно +10.7 +7.8 82 +10 +10 тепло 1028.8 1013.9
03 20.04 В 1 30 км местами туман поземный 1/0
[Ci fib]
+8.7 +6.3 85 +8 +8 тепло 1028.7 1013.7
05 20.04 В 2 40 км 1/0
[Ci fib]
+11.2 +8.9 86 +10 +11 тепло 1028.5 1013.6
04 20.04 В 2 30 км местами туман поземный 1/0
[Ci fib]
+9.3 +8.1 92 +8 +8 тепло 1028.5 1013.5
06 20.04 ЮВ 3 40 км 1/0
[Ci fib]
+14.1 +8.7 70 +13 +15 тепло 1028.3 1013.6 +8.0 +21.1
07 20.04 ЮВ 4 40 км 3/0
[Ci]
+15.6 +8.8 64 +15 +18 тепло 1028.1 1013.5
08 20.04 ЮВ 4 40 км 6/0
[Cs]
+17.6 +8.7 56 +17 +22 тепло 1027.9 1013.4
09 20.04 ЮВ 5 40 км 8/0
[Cs]
+19.1 +7.2 46 +19 +24 тепло 1027.7 1013.2
11 20.04 ЮВ 4 40 км 8/0
[Ci fib]
+21.3 +9.2 46 +23 +30 комфорт 1026.6 1012.3
10 20.04 Ю 4 40 км 8/0
[Cs]
+20.3 +8.9 48 +22 +29 комфорт 1027.2 1012.8
12 20.04 ЮВ 4 40 км 8/0
[Ci fib]
+22.0 +8.8 43 +23 +31 комфорт 1026.0 1011.7
13 20.04 Ю 4 40 км 9/0
[Cs]
+22.6 +9.0 42 +24 +30 комфорт 1025.0 1010.8
14 20.04 ЮВ 4 50 км 6/0
[Ci fib]
+23.2 +8.1 38 +24 +29 комфорт 1024.0 1009.8
15 20.04 ЮВ 4 50 км 4/1 2000 м
[Cu hum Ci fib]
+23.3 +5.2 31 +23 +26 комфорт 1023.3 1009.1
17 20.04 ЮВ 4 50 км 4/0
[Ci fib]
+20.4 +6.0 39 +21 +22 комфорт 1021.9 1007.6
16 20.04 Ю 5 50 км 3/1 2000 м
[Sc diur, vesp Ci fib]
+22.7 +5.1 32 +23 +24 комфорт 1022.5 1008.3
18 20.04 ЮВ 3 50 км 3/0
[Ci fib]
+17.5 +4.8 43 +18 +18 тепло 1021.8 1007.3 +14.1 +23.5
19 20.04 Ю 4 50 км 1/0
[Ci fib]
+15.6 +5.5 51 +15 +15 тепло 1021.5 1007.0
20 20.04 ЮВ 3 50 км ясно +14.3 +6.4 59 +14 +14 тепло 1021.1 1006.5
21 20.04 В 1 50 км ясно +15.4 +6.1 54 +16 +16 тепло 1020.4 1005.9
23 20.04 В 1 50 км ясно +10.6 +6.0 73 +10 +10 тепло 1019.9 1005.1
22 20.04 ЮВ 1 50 км ясно +14.8 +6.4 57 +15 +15 тепло 1020.0 1005.4
00 21.04 Ю 1 50 км ясно +10.2 +6.0 75 +10 +10 тепло 1019.4 1004.6
01 21.04 ЮВ 1 50 км ясно +9.9 +6.8 81 +9 +9 тепло 1018.8 1004.0
02 21.04 С 2 50 км ясно +10.1 +7.3 83 +9 +9 тепло 1018.5 1003.7
03 21.04 З 1 50 км 1/0
[Ci fib]
+8.6 +5.9 83 +8 +8 тепло 1018.6 1003.7
05 21.04 СЗ 1 50 км 1/0
[Ci fib]
+11.0 +7.9 81 +11 +12 тепло 1018.4 1003.7
04 21.04 Ю 1 50 км 3/0
[Ci fib]
+7.6 +6.2 91 +7 +7 тепло 1018.3 1003.4
06 21.04 З 1 50 км 3/0
[Ci fib]
+14.2 +10.0 76 +15 +18 тепло 1018.4 1003.8 +7.1 +17.5
07 21.04 З 3 50 км 3/0
[Ci fib]
+19.2 +11.0 59 +20 +25 тепло 1018.0 1003.7
08 21.04 СЗ 2 50 км 3/0
[Ci fib]
+20.8 +11.1 54 +23 +32 комфорт 1018.0 1003.8
09 21.04 З 2 50 км 8/0
[Cs]
+22.5 +11.6 50 +25 +34 комфорт 1018.0 1003.8
11 21.04 З 3 50 км 4/0
[Ci fib]
+24.6 +12.2 46 +26 +37 жарко 1017.1 1003.1
10 21.04 З 3 50 км 8/0
[Cs]
+23.7 +11.4 46 +25 +35 комфорт 1017.7 1003.6
12 21.04 СЗ 3
{9}
50 км 4/1 1500 м
[Cu hum Ci fib]
+25.6 +10.2 38 +26 +35 жарко 1016.9 1002.9
13 21.04 С 3
{10}
50 км 4/1 1500 м
[Cu hum Ci fib]
+26.0 +9.8 36 +27 +34 жарко 1016.5 1002.5
14 21.04 СЗ 3
{11}
50 км 9/1 2000 м
[Cu hum Cs]
+25.4 +9.2 36 +26 +31 жарко 1016.4 1002.4
15 21.04 С 4
{11}
50 км 9/1 2000 м
[Sc diur, vesp Cs]
+24.8 +9.1 37 +25 +28 комфорт 1016.2 1002.2
17 21.04 СЗ 2 50 км 3/0
[Ci fib]
+22.9 +7.8 38 +24 +24 комфорт 1016.3 1002.2
16 21.04 СЗ 3
{9}
50 км 4/0
[Ci fib]
+24.0 +9.2 39 +25 +27 комфорт 1016.2 1002.1
18 21.04 С 3
{11}
50 км 3/0
[Ac trans Ci fib]
+21.2 +8.8 45 +22 +22 комфорт 1016.9 1002.7 +14.2 +26.0
19 21.04 С 3 50 км 1/0
[Ci fib]
+18.7 +5.5 42 +19 +19 тепло 1017.8 1003.5
20 21.04 С 2 50 км ясно +17.3 +4.9 44 +18 +18 тепло 1018.3 1003.9
21 21.04 С 1 50 км ясно +14.3 +5.6 56 +15 +15 тепло 1018.8 1004.2
23 21.04 С 1 50 км 5/0
[Ci fib]
+12.0 +4.0 58 +12 +12 тепло 1019.5 1004.8
22 21.04 С 2 50 км 4/0
[Ci fib]
+14.7 +4.1 49 +15 +15 тепло 1019.2 1004.6
00 22.04 З 1 40 км 5/0
[Ci fib]
+8.6 +4.4 75 +8 +8 тепло 1019.6 1004.7
01 22.04 СЗ 1 40 км 1/0
[Ci fib]
+8.8 +5.0 77 +8 +8 тепло 1019.7 1004.8
02 22.04 штиль 0 40 км ясно +7.7 +4.8 82 +7 +7 тепло 1019.5 1004.6
03 22.04 З 1 40 км 1/0
[Ci fib]
+6.1 +3.3 82 +5 +5 по сезону 1019.5 1004.5
05 22.04 штиль 0 40 км местами туман поземный 4/0
[Ci fib]
+7.2 +5.0 86 +6 +7 тепло 1019.2 1004.3
04 22.04 СЗ 1 30 км местами туман поземный 4/0
[Ci fib]
+5.4 +3.2 86 +4 +4 по сезону 1019.4 1004.4
06 22.04 Ю 1 40 км 4/0
[Ci fib]
+11.3 +5.6 68 +11 +14 тепло 1018.9 1004.2 +5.3 +21.2
07 22.04 Ю 1 40 км 8/0
[Cs]
+14.5 +3.9 49 +15 +21 тепло 1018.8 1004.2
08 22.04 Ю 1 40 км 9/0
[Cs]
+16.3 +5.0 47 +17 +26 тепло 1018.7 1004.2
09 22.04 ЮЗ 2 50 км 9/0
[Cs]
+17.3 +4.9 44 +18 +27 тепло 1018.3 1003.9
11 22.04 ЮЗ 2 50 км 9/0
[Cs]
+19.4 +6.5 43 +21 +32 комфорт 1017.2 1002.9
10 22.04 Ю 2 50 км 9/0
[Cs]
+18.4 +5.2 42 +19 +30 тепло 1017.9 1003.5
12 22.04 З 3 50 км 6/0
[Cs]
+20.2 +4.2 35 +21 +31 комфорт 1016.7 1002.5
13 22.04 З 1 50 км 6/0
[Cs]
+21.0 +3.2 31 +23 +34 комфорт 1016.1 1001.9
14 22.04 С 2 50 км 8/0
[Cs]
+21.4 +5.3 35 +22 +29 комфорт 1015.3 1001.1
15 22.04 ЮВ 1 50 км 6/0
[Cs]
+21.7 +5.1 34 +22 +27 комфорт 1014.6 1000.5
17 22.04 В 2 50 км 4/0
[Ci fib]
+20.2 +5.0 37 +21 +22 комфорт 1014.2 1000.0
16 22.04 В 1 50 км 6/0
[Cs]
+21.4 +5.3 35 +22 +24 комфорт 1014.4 1000.2
18 22.04 В 2 50 км 6/0
[Cs]
+17.2 +5.2 45 +18 +18 тепло 1014.5 1000.1 +11.3 +22.0
19 22.04 В 1 50 км 6/0
[Cs]
+13.6 +5.2 57 +14 +14 тепло 1014.7 1000.2
20 22.04 ЮВ 1 50 км 6/0
[Cs]
+13.2 +5.8 61 +14 +14 тепло 1014.8 1000.2
21 22.04 ЮВ 2 50 км 6/0
[Cs]
+12.8 +4.7 58 +12 +12 тепло 1014.7 1000.1
23 22.04 ЮВ 3 40 км 6/0
[Cs]
+10.7 +4.4 65 +9 +9 тепло 1014.4 999.7
22 22.04 В 3 40 км 6/0
[Cs]
+12.6 +5.0 60 +11 +11 тепло 1014.4 999.8
00 23.04 В 3 40 км 6/0
[Ac trans Cs]
+10.6 +4.7 67 +9 +9 тепло 1013.9 999.2
01 23.04 В 3 40 км 9/1 600 м
[Cb cap Ac trans Cs]
+10.0 +4.8 70 +8 +8 тепло 1013.1 998.4
02 23.04 Ю 4 35 км в посл. час гроза {ливн. осадки} 9/1 600 м
[Cb cap Ac cuf]
+10.8 +7.1 78 +8 +8 тепло 1012.8 998.1
03 23.04 В 4 40 км {гроза, ливн. осадки} 9/1 600 м
[Cb cap Ac trans]
+11.1 +7.0 76 +9 +9 тепло 1013.0 998.4
05 23.04 СВ 2 20 км гроза, ливневой дождь 9/5 600 м
[Cb cap Ac cuf Ci ing]
+10.4 +8.5 88 +9 +9 тепло 1013.4 998.7
04 23.04 ЮВ 2 15 км гроза без осадков 9/6 600 м
[Cb cap Ac cuf]
+11.1 +6.6 74 +10 +10 тепло 1012.5 997.9
06 23.04 В 2 20 км в посл. час гроза {ливн. осадки} 9/3 600 м
[Cb cap Ac cuf Cs]
+12.0 +9.2 83 +11 +12 тепло 1012.7 998.1 +9.7 +17.2 2
07 23.04 Ю 5 40 км 9/1 2000 м
[Cu med, cong Ac trans Cs]
+13.4 +9.8 79 +11 +13 тепло 1012.8 998.3
08 23.04 Ю 2 30 км 9/1 1500 м
[Cb cap Ac cuf Cs]
+16.2 +10.5 69 +16 +21 тепло 1012.7 998.3
09 23.04 ЮВ 5 40 км 9/0
[Ac trans Cs]
+19.3 +10.3 56 +20 +25 тепло 1012.1 997.9
11 23.04 ЮЗ 3 40 км 9/0
[Ac trans Cs]
+23.3 +11.0 46 +26 +35 жарко 1011.3 997.3
10 23.04 Ю 3 40 км 8/0
[Ac trans Cs]
+21.7 +11.1 51 +24 +33 комфорт 1011.7 997.6
12 23.04 СЗ 2 40 км 9/1 1500 м
[Cb cap Ac trans Cs]
+24.3 +11.6 45 +26 +32 жарко 1010.6 996.6
13 23.04 ЮЗ 5 30 км 9/4 1000 м
[Cb cap Ac cuf Cs]
+24.0 +12.3 48 +26 +28 жарко 1010.4 996.4
14 23.04 СВ 2
{9}
25 км гроза без осадков {ливн. осадки} 9/3 1000 м
[Cb cap Ac cuf Ci ing]
+18.1 +14.6 80 +19 +22 тепло 1011.0 996.7
15 23.04 Ю 3
{9}
20 км слабый ливневой дождь, в посл. час гроза 9/3 1500 м
[Cb cap Ac As]
+18.1 +15.5 85 +18 +20 тепло 1011.6 997.3
17 23.04 З 3 40 км в посл. час ливневой дождь 9/0
[Ac As Ci ing]
+17.3 +14.8 85 +17 +17 тепло 1010.9 996.6
16 23.04 З 4 20 км слабый ливневой дождь 9/3 1500 м
[Cb cap Ac As]
+17.4 +14.7 84 +17 +17 тепло 1011.8 997.5
18 23.04 З 3
{9}
40 км {гроза, ливн. осадки} 9/0
[Ac As]
+16.1 +13.8 86 +16 +16 тепло 1011.8 997.4 +12.0 +24.4 8
19 23.04 З 3 40 км 9/0
[Ac As Cs]
+15.8 +13.3 85 +15 +15 тепло 1012.5 998.1
20 23.04 З 4 40 км 9/0 2000 м
[Ac As Cs]
+16.0 +12.5 80 +15 +15 тепло 1012.8 998.4
21 23.04 З 2 40 км 9/0
[Ac As Cs]
+14.7 +12.2 85 +14 +14 тепло 1012.9 998.4
23 23.04 СЗ 3 40 км 4/0
[Ac trans Ci fib]
+13.9 +11.2 84 +13 +13 тепло 1013.8 999.3
22 23.04 З 3 40 км 5/0
[Ac trans Ci fib]
+14.0 +11.5 85 +13 +13 тепло 1013.5 999.0
00 24.04 СЗ 1 20 км 4/0
[Ac trans Ci fib]
+13.7 +11.4 86 +14 +14 тепло 1014.4 999.9
01 24.04 З 3 20 км 1/0
[Ac trans]
+12.6 +10.8 89 +11 +11 тепло 1014.8 1000.2
02 24.04 З 2 20 км 1/0
[Ac trans]
+11.3 +9.0 86 +10 +10 тепло 1015.3 1000.6
03 24.04 ЮЗ 1 10 км местами туман поземный 1/0
[Ac trans]
+9.2 +8.0 92 +8 +8 по сезону 1015.7 1000.9
05 24.04 З 1 20 км в посл. час туман 4/0
[Ac trans Ci fib]
+9.6 +8.7 94 +9 +10 тепло 1016.2 1001.4
04 24.04 З 1 900 м туман 1/0
[Ac trans Ci fib]
+9.3 +8.2 93 +9 +9 тепло 1016.1 1001.3
06 24.04 З 3 15 км {туман} 4/1 1500 м
[Sc Ac trans Ci fib]
+13.2 +9.8 80 +12 +14 тепло 1016.3 1001.7 +8.8 +16.2
07 24.04 З 4 21 км 4/1 1500 м
[Sc Ac trans Ci fib]
+15.3 +9.0 66 +14 +17 тепло 1016.4 1001.9
08 24.04 З 4 30 км 4/0
[Ci fib]
+16.7 +9.4 62 +16 +22 тепло 1016.1 1001.7
09 24.04 З 4 30 км 8/0
[Ci sp]
+17.4 +8.8 57 +17 +24 тепло 1016.0 1001.6
11 24.04 З 4 30 км 9/1 1500 м
[Cu hum Cs]
+19.1 +9.3 53 +20 +27 тепло 1014.7 1000.4
10 24.04 З 4 30 км 9/0
[Ci sp]
+18.7 +9.7 56 +19 +27 тепло 1015.4 1001.1
12 24.04 З 3 35 км 10/1 1500 м
[Cu hum Ac trans Cs]
+19.7 +8.7 49 +21 +26 комфорт 1014.4 1000.2
13 24.04 З 4 40 км 10/0
[Ac trans Cs]
+19.9 +8.2 47 +21 +26 комфорт 1014.0 999.8
14 24.04 З 4 40 км 10/0
[Ac trans Cs]
+19.6 +9.2 51 +21 +25 комфорт 1013.4 999.2
15 24.04 З 3 40 км 10/0
[Ac As]
+19.6 +9.8 53 +21 +22 комфорт 1013.3 999.1
17 24.04 СЗ 3 40 км слабый дождь 10/9 1000 м
[Sc]
+18.4 +6.2 45 +19 +19 тепло 1013.6 999.3
16 24.04 СЗ 3 30 км 10/0
[Ac As]
+19.3 +9.2 52 +20 +21 тепло 1013.4 999.2
18 24.04 СЗ 2 40 км в посл. час дождь 10/9 1500 м
[Sc]
+17.2 +6.7 50 +18 +18 тепло 1013.9 999.5 +13.2 +20.1 0.0
19 24.04 С 2 30 км слабый дождь 10/9 1500 м
[Sc]
+15.3 +9.0 66 +15 +15 тепло 1014.6 1000.1
20 24.04 С 1 30 км слабый дождь 10/9 1000 м
[Sc]
+13.8 +9.2 74 +14 +14 тепло 1014.9 1000.4
21 24.04 З 1 40 км в посл. час дождь 9/9 1500 м
[Sc]
+13.1 +9.2 77 +13 +13 тепло 1014.6 1000.0
23 24.04 штиль 0 40 км 6/6 1500 м
[Sc]
+12.1 +8.8 80 +12 +12 тепло 1014.0 999.4
22 24.04 З 1 40 км 9/9 1500 м
[Sc]
+13.0 +9.4 79 +13 +13 тепло 1014.2 999.6
00 25.04 ЮВ 1 40 км {дождь} 8/8 1500 м
[Sc]
+11.2 +9.1 87 +11 +11 тепло 1013.4 998.8 0.0
01 25.04 ЮВ 1 40 км 5/5 2000 м
[Sc]
+10.8 +8.4 85 +10 +10 тепло 1013.0 998.3
02 25.04 ЮВ 2 40 км 9/9 2000 м
[Sc]
+10.5 +8.8 89 +9 +9 тепло 1012.5 997.8
03 25.04 Ю 4 40 км 9/6 2000 м
[Sc Ac trans]
+12.3 +9.3 82 +10 +10 тепло 1011.4 996.8
05 25.04 Ю 3 40 км 5/0
[Ac trans Ci fib]
+12.5 +9.3 81 +11 +12 тепло 1010.0 995.5
04 25.04 Ю 4 40 км 9/0
[Ac trans Ci fib]
+12.4 +9.0 80 +10 +10 тепло 1010.5 996.0
06 25.04 Ю 4 40 км 9/0
[Ac lent Cs]
+15.5 +9.8 69 +15 +16 тепло 1009.5 995.1 +10.4 +17.2 0.0
07 25.04 ЮЗ 6 50 км 5/0
[Ac lent Cs]
+17.8 +9.4 58 +17 +19 тепло 1009.2 994.9
08 25.04 ЮЗ 7
{12}
50 км 6/1 1000 м
[Cu med, cong Ac lent Cs]
+19.3 +9.5 53 +20 +21 тепло 1008.5 994.3
09 25.04 ЮЗ 6
{12}
50 км 5/1 1500 м
[Cu med, cong Ac lent Ci fib]
+20.8 +9.7 49 +22 +26 комфорт 1008.0 993.9
11 25.04 З 9
{15}
50 км 5/3 1500 м
[Cu med, cong Ac lent Ci sp]
+22.1 +7.1 38 +23 +24 комфорт 1006.8 992.8
10 25.04 З 7
{13}
50 км 4/1 1500 м
[Cu med, cong Ac lent Ci fib]
+22.2 +8.7 42 +24 +26 комфорт 1007.0 993.0
12 25.04 З 9
{15}
50 км 5/4 2000 м
[Cu med, cong Ac lent Ci sp]
+22.7 +8.4 40 +24 +25 комфорт 1006.7 992.7
13 25.04 З 6
{13}
50 км 9/3 2000 м
[Cu med, cong Ac cuf Ci sp]
+21.8 +9.0 44 +23 +25 комфорт 1006.0 992.0
14 25.04 СЗ 5
{13}
20 км слабый ливневой дождь 9/9 1000 м
[Cb cap]
+17.8 +12.0 69 +17 +18 тепло 1006.6 992.4
15 25.04 З 5
{13}
50 км в посл. час ливневой дождь 8/1 1000 м
[Cb calv Ac cuf Ci sp]
+19.3 +11.8 62 +20 +22 тепло 1005.7 991.6
17 25.04 З 6
{13}
50 км в посл. час ливневой дождь 9/1 1000 м
[Cb calv Ac cuf]
+17.2 +9.4 60 +16 +16 тепло 1007.1 992.8
16 25.04 СЗ 8-15
{15}
50 км в посл. час ливневой дождь 8/3 1000 м
[Cb calv Ac cuf]
+18.4 +8.4 52 +18 +18 тепло 1006.7 992.5
18 25.04 СЗ 5-11
{16}
40 км в посл. час ливневой дождь 9/9 1000 м
[Cb cap]
+15.0 +8.2 64 +14 +14 тепло 1008.7 994.3 +14.8 +23.1 1
19 25.04 З 4 40 км 9/1 1500 м
[Sc Ac As]
+13.7 +9.7 77 +12 +12 тепло 1009.8 995.3
20 25.04 З 5 30 км слабый ливневой дождь 9/9 600 м
[Cb calv]
+13.0 +9.6 80 +11 +11 тепло 1011.1 996.6
21 25.04 З 4
{9}
50 км в посл. час ливневой дождь 4/1 1500 м
[Sc Ac trans]
+12.6 +9.1 79 +11 +11 тепло 1011.4 996.9
23 25.04 ЮЗ 1 50 км в посл. час дождь 4/0
[Ac trans]
+9.8 +7.7 87 +9 +9 тепло 1012.2 997.5
22 25.04 СЗ 2 30 км слабый дождь 9/0
[Ac As]
+12.1 +8.6 79 +11 +11 тепло 1011.9 997.3
00 26.04 Ю 2
{9}
40 км {ливн. осадки, дождь} 4/0
[Ac trans]
+9.2 +7.8 91 +7 +7 по сезону 1012.5 997.8 0.1
01 26.04 ЮВ 1 25 км 9/0
[Ac trans]
+9.5 +8.3 92 +9 +9 тепло 1012.5 997.8
02 26.04 З 1 20 км 9/3 1500 м
[Sc Ac trans]
+10.0 +8.3 89 +9 +9 тепло 1012.7 998.0
03 26.04 СЗ 1 20 км слабый ливневой дождь 9/5 1000 м
[Cb calv Ac trans]
+10.2 +8.3 88 +10 +10 тепло 1012.9 998.2
05 26.04 ЮЗ 2 15 км в посл. час дождь 8/6 1000 м
[Sc Ac trans]
+10.4 +8.5 88 +9 +9 тепло 1013.1 998.4
04 26.04 З 1 15 км слабый дождь {ливн. осадки} 9/9 1500 м
[Sc]
+10.0 +8.3 89 +9 +9 тепло 1012.9 998.2
06 26.04 ЮЗ 2 35 км {ливн. осадки, дождь} 8/3 1500 м
[Sc Ac trans Ci fib]
+11.6 +8.4 81 +10 +12 тепло 1013.1 998.5 +9.1 +15.0 0.3

 

Местоположение метеостанции Wroclaw (Польша): широта 51.10 долгота 16.88 высота над уровнем моря 124 м.

В архиве по умолчанию представлена погода в Wroclaw за последнюю неделю. Архивные данные за месяц целиком и за предыдущие месяцы, начиная с января 2011 года, Вы можете получить, выбрав интересующий диапазон дат из раскрывающегося списка и нажав кнопку "Ввод!".


*Определитесь, кто Вы:
робот инопланетянин человек

Внимание! Время в таблицах - всемирное. Для получения местного времени необходимо прибавить поправку, которая в Wroclaw равна 1 ч.

Смотрите также архив погоды в соседних городах и на ближайших метеорологических станциях:

Погода в Legnica (Польша) (49 км)
Погода в Klodzko (Польша) (77 км)
Погода в Jelenia Gora (Польша) (79 км)
Погода в Opole (Польша) (83 км)
Погода в Leszno (Польша) (85 км)
Погода в Snezka (Чехия) (89 км)
Погода в Sniezka (Польша) (91 км)
Погода в Polom (Чехия) (92 км)
Погода в Pec pod Snezkou (Чехия) (93 км)
Погода в Serak (Чехия) (104 км)

Пояснения к столбцам:

Ветер - указаны скорость ветра в м/с - средняя за 10 мин, порывы в срок и между сроками (в фигурных скобках) и направление, откуда дует ветер: С - северный, СВ - северо-восточный, В - восточный, ЮВ - юго-восточный, Ю - южный, ЮЗ - юго-западный, З - западный, СЗ - северо-западный.
Видимость - горизонтальная дальность видимости в метрах или километрах. При видимости от 1 до 10 км при отсутствии осадков обычно наблюдается дымка, при ухудшении видимости до 1 км и менее - туман. В сухую погоду видимость может ухудшаться дымом, пылью или мглою.
Явления - указаны атмосферные явления, наблюдавшиеся в срок или в последний час перед сроком; фигурными скобками обозначены явления, наблюдавшиеся между сроками (за 1-3 часа до срока); квадратными скобками обозначены град или гололедные отложения с указанием их диаметра в мм.
Облачность - указаны через наклонную черту общая и нижняя облачность в баллах и высота нижней границы облаков в метрах; квадратными скобками обозначены формы облаков: Ci - перистые, Cs - перисто-слоистые, Cc - перисто-кучевые, Ac - высококучевые, As - высокослоистые, Sc - слоисто-кучевые, Ns - слоисто-дождевые, Cu - кучевые, Cb - кучево-дождевые. Подробнее классификацию облаков см. в Атласе облаков (PDF).
T - Температура воздуха - температура, измеренная на высоте 2 м над землей.
Td - Температура точки росы - температура, при понижении до которой содержащийся в воздухе водяной пар достигнет насыщения.
f - Относительная влажность воздуха - влажноcть воздуха, измеренная на высоте 2 м над землей.
Te - Эффективная температура - температура, которую ощущает одетый по сезону человек в тени. Характеристика душности погоды. При расчете учитывается влияние влажности воздуха и скорости ветра на теплоощущения человека.
Tes - Эффективная температура на солнце - температура, которую ощущает человек, с поправкой на солнечный нагрев. Характеристика знойности погоды. Зависит от высоты солнца над горизонтом, облачности и скорости ветра. Ночью, в пасмурную погоду, а также при ветре 12 м/с и более поправка равна нулю.
P - Атмосферное давление - приведенное к уровню моря атмосферное давление.
Po - Атмосферное давление - измеренное на уровне метеостанции атмосферное давление.
Tmin - Минимальная температура - минимум температуры воздуха на высоте 2 м над землей.
Tmax - Максимальная температура - максимум температуры воздуха на высоте 2 м над землей.
R - Количество осадков - Количество выпавших осадков за период времени, мм. При наведении курсора мыши на число - период времени, за который выпало указанное количество осадков.
R24 - Количество осадков - Количество выпавших осадков за 24 часа, мм.
S - Снежный покров - Высота снежного покрова, см. При наведении курсора мыши на число - состояние снежного покрова и степень покрытия местности в баллах.